カタログに戻る

HULIANWANG DIGUI-153

運用中通信LEO
NORAD 67529·PAYLOAD·🇨🇳 China

打ち上げ Jan 19, 2026 から Wenchang Space Launch Site

Loading…

次のパス (今後24時間)

TLE

最新Source: Space-Track

元期: Sep 14, 2026, 09:55 UTC

1 67529U 26013H   26257.41368478 -.00000113  00000-0  23457-4 0  9995
2 67529  50.0054  35.3175 0000895  85.5102 274.5873 13.29327583 31915

AllMySatでHULIANWANG DIGUI-153をリアルタイム追跡

Download on the App Store